Baileyville, IL

5:13 PM CDT on August 23, 2016 (GMT -0500)
Albertus

Weather History for KFEP - January, 2014

Change the Weather History Date:

Friday, January 31, 2014

  Actual Average Record
Temperature  
Mean Temperature 12 °F -  
Max Temperature 18 °F 29 °F 52 °F (2012)
Min Temperature 7 °F 10 °F -11 °F (1985)
Degree Days  
Heating Degree Days 52    
Moisture  
Dew Point 5 °F    
Average Humidity 74    
Maximum Humidity 78    
Minimum Humidity 65    
Precipitation  
Precipitation 0.00 in - - ()
Sea Level Pressure  
Sea Level Pressure 30.10 in    
Wind  
Wind Speed 6 mph (WNW)    
Max Wind Speed 15 mph    
Max Gust Speed -    
Visibility 10 miles    
Events      
Averages and records for this station are not official NWS values.
T = Trace of Precipitation, MM = Missing Value Source: NWS Daily Summary

Daily Weather History Graph

Daily Weather History Graph

Search for Another Location

Airport or City:

Trip Planner

Search our weather history database for the weather conditions in past years. The results will help you decide how hot, cold, wet, or windy it might be!

Date:

Astronomy

Jan. 31, 2014 Rise Set
Actual Time 7:12 AM CST 5:11 PM CST
Civil Twilight 6:42 AM CST 5:41 PM CST
Nautical Twilight 6:09 AM CST 6:14 PM CST
Astronomical Twilight 5:36 AM CST 6:47 PM CST
Moon 7:20 AM CST (1/31) 6:38 PM CST (1/31)
Length of Visible Light 10h 58m
Length of Day
9h 58m
New Moon, 1% of the Moon is Illuminated
Jan 31
New Moon
Feb 6
First Quarter
Feb 14
Full
Feb 22
Last Quarter
Mar 1
New

Hourly Weather History & Observations

Time (CST) Temp. Windchill Dew Point Humidity Pressure Visibility Wind Dir Wind Speed Gust Speed Precip Events Conditions
12:15 AM 18.3 °F 4.1 °F 11.7 °F 75% 29.95 in 10.0 mi NW 15.0 mph - N/A   Clear
12:35 AM 16.3 °F 2.1 °F 10.0 °F 76% 29.95 in 10.0 mi NW 13.8 mph - N/A   Clear
12:55 AM 16.2 °F 3.2 °F 10.2 °F 77% 29.97 in 10.0 mi NW 11.5 mph - N/A   Clear
1:15 AM 16.2 °F 6.5 °F 10.2 °F 77% 29.98 in 10.0 mi WNW 6.9 mph - N/A   Clear
1:35 AM 16.2 °F 3.9 °F 9.9 °F 76% 29.99 in 10.0 mi WNW 10.4 mph - N/A   Clear
1:55 AM 15.8 °F 7.2 °F 9.5 °F 76% 30.00 in 10.0 mi WNW 5.8 mph - N/A   Clear
2:15 AM 14.4 °F 4.3 °F 8.4 °F 77% 30.01 in 10.0 mi West 6.9 mph - N/A   Clear
2:35 AM 13.6 °F 3.5 °F 8.1 °F 78% 30.02 in 10.0 mi West 6.9 mph - N/A   Clear
2:55 AM 13.6 °F 2.5 °F 8.1 °F 78% 30.02 in 10.0 mi West 8.1 mph - N/A   Clear
3:15 AM 13.6 °F 2.5 °F 7.7 °F 77% 30.03 in 10.0 mi West 8.1 mph - N/A   Clear
3:35 AM 13.6 °F 7.7 °F 7.7 °F 77% 30.03 in 10.0 mi West 3.5 mph - N/A   Clear
3:55 AM 13.6 °F 3.5 °F 7.9 °F 78% 30.04 in 10.0 mi West 6.9 mph - N/A   Clear
4:15 AM 13.6 °F 2.5 °F 7.7 °F 77% 30.05 in 10.0 mi West 8.1 mph - N/A   Clear
4:35 AM 13.5 °F 3.3 °F 7.7 °F 78% 30.06 in 10.0 mi West 6.9 mph - N/A   Clear
4:55 AM 11.8 °F 1.3 °F 6.1 °F 78% 30.07 in 10.0 mi WSW 6.9 mph - N/A   Clear
5:15 AM 11.1 °F 0.4 °F 5.0 °F 76% 30.08 in 10.0 mi West 6.9 mph - N/A   Clear
5:35 AM 11.1 °F 1.7 °F 5.0 °F 76% 30.08 in 10.0 mi West 5.8 mph - N/A   Clear
5:55 AM 11.1 °F 1.7 °F 5.5 °F 78% 30.09 in 10.0 mi WNW 5.8 mph - N/A   Clear
6:15 AM 11.1 °F -0.6 °F 4.8 °F 76% 30.09 in 10.0 mi WNW 8.1 mph - N/A   Clear
6:35 AM 10.0 °F -1.9 °F 3.9 °F 76% 30.10 in 10.0 mi WNW 8.1 mph - N/A   Clear
6:55 AM 8.6 °F 0.1 °F 2.8 °F 77% 30.10 in 10.0 mi WNW 4.6 mph - N/A   Clear
7:15 AM 8.4 °F -2.8 °F 2.3 °F 76% 30.10 in 10.0 mi NW 6.9 mph - N/A   Clear
7:35 AM 7.7 °F -0.9 °F 1.8 °F 77% 30.12 in 10.0 mi NW 4.6 mph - N/A   Clear
7:55 AM 7.2 °F 0.3 °F 1.2 °F 77% 30.11 in 10.0 mi NW 3.5 mph - N/A   Clear
8:15 AM 7.5 °F -1.1 °F 1.2 °F 75% 30.12 in 10.0 mi NW 4.6 mph - N/A   Clear
8:35 AM 7.7 °F - 1.4 °F 75% 30.13 in 10.0 mi Calm Calm - N/A   Clear
8:55 AM 7.9 °F -0.7 °F 1.4 °F 75% 30.13 in 10.0 mi NNW 4.6 mph - N/A   Clear
9:15 AM 7.7 °F - 1.2 °F 75% 30.13 in 10.0 mi Calm Calm - N/A   Clear
9:35 AM 8.1 °F - 1.0 °F 73% 30.14 in 10.0 mi Calm Calm - N/A   Clear
9:55 AM 8.4 °F - 1.2 °F 73% 30.14 in 10.0 mi Calm Calm - N/A   Clear
10:15 AM 9.1 °F - 1.8 °F 72% 30.15 in 10.0 mi Calm Calm - N/A   Clear
10:35 AM 9.5 °F 1.2 °F 2.1 °F 72% 30.17 in 10.0 mi West 4.6 mph - N/A   Clear
10:55 AM 11.1 °F 3.1 °F 3.0 °F 70% 30.17 in 10.0 mi West 4.6 mph - N/A   Clear
11:15 AM 11.1 °F 1.7 °F 3.4 °F 71% 30.18 in 10.0 mi WSW 5.8 mph - N/A   Clear
11:35 AM 11.1 °F 1.7 °F 3.6 °F 72% 30.18 in 10.0 mi West 5.8 mph - N/A   Clear
11:55 AM 11.1 °F - 3.4 °F 71% 30.15 in 10.0 mi Calm Calm - N/A   Clear
12:15 PM 11.1 °F 1.7 °F 3.0 °F 70% 30.15 in 10.0 mi West 5.8 mph - N/A   Clear
12:35 PM 11.1 °F 1.7 °F 2.8 °F 69% 30.17 in 10.0 mi West 5.8 mph - N/A   Clear
1:15 PM 13.6 °F 6.0 °F 5.7 °F 71% 30.15 in 10.0 mi West 4.6 mph - N/A   Clear
1:35 PM 13.6 °F - 5.4 °F 70% 30.14 in 10.0 mi Calm Calm - N/A   Clear
1:55 PM 13.6 °F 6.0 °F 4.8 °F 68% 30.13 in 10.0 mi West 4.6 mph - N/A   Clear
2:15 PM 13.6 °F - 4.5 °F 67% 30.12 in 10.0 mi Calm Calm - N/A   Clear
2:35 PM 13.6 °F - 4.1 °F 66% 30.12 in 10.0 mi Calm Calm - N/A   Clear
2:55 PM 13.6 °F 7.7 °F 4.1 °F 66% 30.13 in 10.0 mi West 3.5 mph - N/A   Clear
3:15 PM 14.2 °F 6.7 °F 4.5 °F 65% 30.13 in 10.0 mi West 4.6 mph - N/A   Scattered Clouds
3:55 PM 13.6 °F - 4.1 °F 66% 30.12 in 10.0 mi Calm Calm - N/A   Clear
4:35 PM 13.6 °F - 4.6 °F 67% 30.11 in 10.0 mi Calm Calm - N/A   Clear
4:55 PM 13.6 °F - 5.0 °F 68% 30.11 in 10.0 mi Calm Calm - N/A   Clear
5:15 PM 13.6 °F - 5.4 °F 70% 30.12 in 10.0 mi Calm Calm - N/A   Clear
5:35 PM 12.6 °F - 5.2 °F 72% 30.12 in 10.0 mi Calm Calm - N/A   Clear
5:55 PM 11.1 °F - 4.6 °F 75% 30.13 in 10.0 mi Calm Calm - N/A   Mostly Cloudy
6:15 PM 11.1 °F - 3.7 °F 72% 30.13 in 10.0 mi Calm Calm - N/A   Scattered Clouds
6:35 PM 11.1 °F - 4.6 °F 75% 30.11 in 10.0 mi Calm Calm - N/A   Clear
6:55 PM 11.1 °F - 3.4 °F 71% 30.11 in 10.0 mi Calm Calm - N/A   Clear
7:15 PM 11.1 °F - 3.7 °F 72% 30.11 in 10.0 mi Calm Calm - N/A   Clear
7:35 PM 11.1 °F - 4.6 °F 75% 30.11 in 10.0 mi Calm Calm - N/A   Clear
7:55 PM 11.1 °F - 4.8 °F 76% 30.11 in 10.0 mi Calm Calm - N/A   Clear
8:15 PM 11.1 °F - 3.9 °F 73% 30.11 in 10.0 mi Calm Calm - N/A   Clear
8:35 PM 11.1 °F - 4.1 °F 73% 30.11 in 10.0 mi Calm Calm - N/A   Clear
8:55 PM 11.1 °F - 4.1 °F 73% 30.10 in 10.0 mi Calm Calm - N/A   Scattered Clouds
9:15 PM 11.1 °F - 4.1 °F 73% 30.10 in 10.0 mi Calm Calm - N/A   Scattered Clouds
9:35 PM 11.1 °F - 4.6 °F 75% 30.10 in 10.0 mi Calm Calm - N/A   Clear
9:55 PM 11.1 °F - 4.8 °F 76% 30.10 in 10.0 mi Calm Calm - N/A   Clear
10:15 PM 11.1 °F - 4.6 °F 75% 30.09 in 10.0 mi Calm Calm - N/A   Clear
10:35 PM 11.1 °F - 5.0 °F 76% 30.09 in 10.0 mi Calm Calm - N/A   Mostly Cloudy
10:55 PM 11.1 °F - 4.5 °F 75% 30.08 in 10.0 mi Calm Calm - N/A   Overcast
11:15 PM 13.6 °F - 6.8 °F 74% 30.08 in 10.0 mi Calm Calm - N/A   Overcast
11:35 PM 13.6 °F - 6.4 °F 73% 30.09 in 10.0 mi Calm Calm - N/A   Mostly Cloudy
11:55 PM 13.6 °F - 6.6 °F 74% 30.08 in 10.0 mi Calm Calm - N/A   Overcast